Location: LDNL
(36.4545°S, 141.6685°E)
Time: 06:41:16
(UTC+10:00)

Vanguard 2 Rocket - Visible Passes

Search period start: 10 August 2022 00:00
Search period end: 20 August 2022 00:00
Orbit: 553 x 3323 km, 32.9° (Epoch: 08 August)

Date Brightness Start Highest point End Pass type
(mag) Time Alt. Az. Time Alt. Az. Time Alt. Az.
10 Aug 8.5 04:27:33 21° ENE 04:27:33 21° ENE 04:29:33 10° E visible
10 Aug 7.0 06:33:19 12° W 06:37:34 60° N 06:44:42 10° ENE visible
11 Aug 6.5 05:36:45 45° NW 05:37:47 58° N 05:43:30 10° E visible
12 Aug 8.0 04:40:11 28° ENE 04:40:11 28° ENE 04:42:48 10° E visible
12 Aug 7.3 06:46:20 10° W 06:50:46 50° N 06:57:37 10° ENE visible
13 Aug 6.6 05:49:22 34° WNW 05:50:59 54° N 05:56:36 10° ENE visible
14 Aug 7.4 04:52:46 36° ENE 04:52:46 36° ENE 04:55:59 10° ENE visible
15 Aug 6.9 06:01:58 23° WNW 06:04:12 43° N 06:09:31 10° ENE visible
16 Aug 6.9 05:05:23 42° NNE 05:05:23 42° NNE 05:09:04 10° ENE visible
17 Aug 9.1 04:08:49 11° ENE 04:08:49 11° ENE 04:08:59 10° ENE visible
17 Aug 7.4 06:14:35 15° WNW 06:17:23 30° NNW 06:22:09 10° NE visible
18 Aug 6.9 05:18:02 37° N 05:18:02 37° N 05:22:00 10° NE visible
19 Aug 8.8 04:21:29 13° ENE 04:21:29 13° ENE 04:22:05 10° ENE visible
19 Aug 8.0 06:27:31 10° WNW 06:30:33 19° NNW 06:34:12 10° NNE visible
